Date String (YYYY-MM-DD hh:mm:ss) UTC,Instrument flags,absolute air pressure of the measurement (hPa),sample flow rate (lpm),inlet stack bypass flow (lpm),air temperature of the measurement (°C),ambient temperature measured by the external sensor (°C),aerosol sample conditioner tube jacket temperature (°C),OPC LED temperature (°C),internal box temperature (°C),relative humidity of the measurement (%),span deviation,mass concentration of particles derived from Lorenz-Mie calculation of OPC scattering (μg/m³),mass concentration of particles derived from Lorenz-Mie calculation of OPC scattering (μg/m³),mass concentration of particles derived from Lorenz-Mie calculation of OPC scattering (μg/m³)
DateTimeUTC,F1_M11,P_M11,Q1_M11,Q2_M11,T1_M11,T2_M11,T3_M11,T4_M11,T5_M11,U1_M11,ZSPAN_M11,X0_M11,X2_M11,X1_M11
2023-06-14 16:00:00,SystemResetWarning,0827.7,5.00,000.00,030.0,028.1,000.0,038.6,031.4,25.4,0000.0,0008.35,0002.88,0002.25
2023-06-14 16:01:00,SystemResetWarning,0827.8,5.00,000.00,030.0,028.2,000.0,038.6,031.4,24.5,0000.0,0008.49,0002.93,0002.28
2023-06-14 16:02:00,SystemResetWarning,0827.7,5.01,000.00,030.0,028.2,000.0,038.6,031.5,23.7,0000.0,0008.25,0002.94,0002.28
2023-06-14 16:03:00,SystemResetWarning,0827.7,5.00,000.00,030.0,028.3,000.0,038.6,031.5,23.6,0000.0,0007.62,0002.89,0002.28
2023-06-14 16:04:00,SystemResetWarning,0827.7,5.00,000.00,030.0,028.4,000.0,038.6,031.5,23.8,0000.0,0007.61,0002.86,0002.28
2023-06-14 16:05:00,SystemResetWarning,0827.7,4.99,000.00,030.0,028.4,000.0,038.6,031.5,24.0,0000.0,0007.72,0002.87,0002.29
2023-06-14 16:06:00,SystemResetWarning,0827.7,5.00,000.00,030.0,028.4,000.0,038.6,031.5,23.4,0000.0,0007.80,0002.88,0002.30
2023-06-14 16:07:00,SystemResetWarning,0827.7,5.00,000.00,030.1,028.5,000.0,038.6,031.5,23.9,0000.0,0007.11,0002.88,0002.31
2023-06-14 16:08:00,SystemResetWarning,0827.7,5.00,000.00,030.1,028.5,000.0,038.6,031.6,23.0,0000.0,0005.31,0002.90,0002.29
2023-06-14 16:09:00,SystemResetWarning,0827.7,5.00,000.00,030.1,028.5,000.0,038.6,031.6,22.2,0000.0,0005.66,0002.92,0002.28
2023-06-14 16:10:00,SystemResetWarning,0827.7,5.00,000.00,030.1,028.5,000.0,038.6,031.6,23.1,0000.0,0005.63,0002.85,0002.25
2023-06-14 16:11:00,SystemResetWarning,0827.7,5.00,000.00,030.1,028.4,000.0,038.6,031.7,23.9,0000.0,0005.60,0002.87,0002.25
2023-06-14 16:12:00,SystemResetWarning,0827.7,4.99,000.00,030.1,026.7,000.0,038.6,031.6,23.2,0000.0,0006.07,0002.86,0002.25
2023-06-14 16:13:00,SystemResetWarning,0827.7,5.01,000.00,030.1,025.1,000.0,038.5,031.5,23.6,0000.0,0006.08,0002.87,0002.26
2023-06-14 16:14:00,SystemResetWarning,0827.6,5.01,000.00,030.1,025.2,000.0,038.5,031.4,23.7,0000.0,0006.22,0002.91,0002.28
2023-06-14 16:15:00,SystemResetWarning,0827.6,5.01,000.00,029.9,025.5,000.0,038.5,031.1,24.3,0000.0,0006.03,0002.86,0002.28
2023-06-14 16:16:00,SystemResetWarning,0827.6,4.99,000.00,029.8,025.9,000.0,038.5,031.0,24.1,0000.0,0005.68,0002.85,0002.29
2023-06-14 16:17:00,SystemResetWarning,0827.5,5.00,000.00,029.8,026.3,000.0,038.4,031.0,24.9,0000.0,0005.54,0002.87,0002.29
2023-06-14 16:18:00,SystemResetWarning,0827.6,5.01,000.00,029.7,026.6,000.0,038.4,031.1,25.4,0000.0,0005.50,0002.89,0002.29
2023-06-14 16:19:00,SystemResetWarning,0827.6,5.01,000.00,029.7,026.9,000.0,038.4,031.1,24.7,0000.0,0005.32,0002.91,0002.31
2023-06-14 16:20:00,SystemResetWarning,0827.6,5.00,000.00,029.7,027.2,000.0,038.4,031.1,25.8,0000.0,0005.08,0002.92,0002.34
2023-06-14 16:21:00,SystemResetWarning,0827.6,5.00,000.00,029.7,027.4,000.0,038.4,031.2,27.2,0000.0,0005.60,0002.93,0002.37
2023-06-14 16:22:00,SystemResetWarning,0827.6,4.99,000.00,029.7,027.6,000.0,038.3,031.2,26.2,0000.0,0006.80,0002.91,0002.40
2023-06-14 16:23:00,SystemResetWarning,0827.6,4.99,000.00,029.7,027.7,000.0,038.3,031.2,27.1,0000.0,0006.46,0002.94,0002.41
2023-06-14 16:24:00,SystemResetWarning,0827.7,5.02,000.00,029.7,027.8,000.0,038.3,031.2,26.5,0000.0,0006.71,0003.01,0002.42
2023-06-14 16:25:00,SystemResetWarning,0827.6,5.01,000.00,029.7,027.9,000.0,038.3,031.2,25.2,0000.0,0007.71,0003.05,0002.43
2023-06-14 16:26:00,SystemResetWarning,0827.6,5.00,000.00,029.7,028.0,000.0,038.3,031.3,25.0,0000.0,0007.81,0003.09,0002.46
2023-06-14 16:27:00,SystemResetWarning,0827.5,5.00,000.00,029.7,028.1,000.0,038.3,031.3,25.0,0000.0,0007.84,0003.11,0002.48
2023-06-14 16:28:00,SystemResetWarning,0827.5,5.00,000.00,029.8,028.1,000.0,038.3,031.3,26.1,0000.0,0007.79,0003.11,0002.51
2023-06-14 16:29:00,SystemResetWarning,0827.5,5.00,000.00,029.8,028.2,000.0,038.3,031.3,25.5,0000.0,0007.87,0003.15,0002.54
2023-06-14 16:30:00,SystemResetWarning,0827.5,4.99,000.00,029.8,028.2,000.0,038.3,031.3,25.9,0000.0,0007.93,0003.17,0002.57
2023-06-14 16:31:00,SystemResetWarning,0827.5,5.00,000.00,029.8,028.3,000.0,038.3,031.4,26.3,0000.0,0008.06,0003.20,0002.59
2023-06-14 16:32:00,SystemResetWarning,0827.5,5.00,000.00,029.8,028.3,000.0,038.3,031.4,25.9,0000.0,0007.72,0003.23,0002.60
2023-06-14 16:33:00,SystemResetWarning,0827.5,5.00,000.00,029.9,028.3,000.0,038.4,031.4,26.1,0000.0,0006.92,0003.24,0002.59
2023-06-14 16:34:00,SystemResetWarning,0827.7,5.00,000.00,029.9,028.4,000.0,038.4,031.4,27.0,0000.0,0007.24,0003.26,0002.59
2023-06-14 16:35:00,SystemResetWarning,0827.7,5.00,000.00,029.9,028.4,000.0,038.4,031.4,27.1,0000.0,0007.05,0003.25,0002.60
2023-06-14 16:36:00,SystemResetWarning,0827.6,5.01,000.00,029.9,028.4,000.0,038.4,031.5,26.1,0000.0,0005.72,0003.23,0002.60
2023-06-14 16:37:00,SystemResetWarning,0827.5,5.00,000.00,029.9,027.7,000.0,038.4,031.6,25.8,0000.0,0005.71,0003.23,0002.61
2023-06-14 16:38:00,SystemResetWarning,0827.6,5.00,000.00,029.9,025.6,000.0,038.3,031.5,26.2,0000.0,0005.83,0003.26,0002.62
2023-06-14 16:39:00,SystemResetWarning,0827.8,4.99,000.00,029.9,024.8,000.0,038.3,031.4,25.1,0000.0,0006.08,0003.27,0002.63
2023-06-14 16:40:00,SystemResetWarning,0827.6,5.01,000.00,029.8,025.0,000.0,038.3,031.1,25.4,0000.0,0006.04,0003.24,0002.62
2023-06-14 16:41:00,SystemResetWarning,0827.5,5.01,000.00,029.7,025.4,000.0,038.3,030.9,24.9,0000.0,0005.98,0003.23,0002.61
2023-06-14 16:42:00,SystemResetWarning,0827.8,5.00,000.00,029.6,025.8,000.0,038.3,030.9,25.9,0000.0,0006.59,0003.20,0002.59
2023-06-14 16:43:00,SystemResetWarning,0827.7,5.00,000.00,029.6,026.2,000.0,038.2,030.9,25.2,0000.0,0007.19,0003.18,0002.58
2023-06-14 16:44:00,SystemResetWarning,0827.8,4.98,000.00,029.6,026.6,000.0,038.2,030.9,25.5,0000.0,0007.50,0003.17,0002.58
2023-06-14 16:45:00,SystemResetWarning,0827.5,5.01,000.00,029.5,026.9,000.0,038.2,031.0,25.5,0000.0,0007.34,0003.17,0002.59
2023-06-14 16:46:00,SystemResetWarning,0827.7,5.01,000.00,029.5,027.1,000.0,038.2,031.0,25.3,0000.0,0008.04,0003.13,0002.58
2023-06-14 16:47:00,SystemResetWarning,0827.6,4.98,000.00,029.5,027.3,000.0,038.2,031.0,25.4,0000.0,0008.11,0003.16,0002.59
2023-06-14 16:48:00,SystemResetWarning,0827.4,4.99,000.00,029.5,027.5,000.0,038.2,031.0,25.6,0000.0,0008.22,0003.20,0002.58
2023-06-14 16:49:00,SystemResetWarning,0827.4,5.01,000.00,029.5,027.6,000.0,038.1,031.0,26.0,0000.0,0008.18,0003.18,0002.56
2023-06-14 16:50:00,SystemResetWarning,0827.4,5.01,000.00,029.5,027.7,000.0,038.1,031.0,25.5,0000.0,0008.01,0003.14,0002.52
2023-06-14 16:51:00,SystemResetWarning,0827.4,5.00,000.00,029.6,027.8,000.0,038.1,031.1,25.5,0000.0,0007.91,0003.11,0002.49
2023-06-14 16:52:00,SystemResetWarning,0827.6,5.01,000.00,029.6,027.9,000.0,038.1,031.1,25.6,0000.0,0007.79,0003.09,0002.47
2023-06-14 16:53:00,SystemResetWarning,0827.6,4.99,000.00,029.6,028.0,000.0,038.1,031.2,25.6,0000.0,0007.22,0003.05,0002.47
2023-06-14 16:54:00,SystemResetWarning,0827.4,4.99,000.00,029.6,028.0,000.0,038.1,031.2,25.1,0000.0,0006.67,0003.07,0002.45
2023-06-14 16:55:00,SystemResetWarning,0827.5,4.99,000.00,029.6,028.1,000.0,038.2,031.2,25.8,0000.0,0006.31,0003.04,0002.42
2023-06-14 16:56:00,SystemResetWarning,0827.4,5.00,000.00,029.6,028.1,000.0,038.2,031.2,25.2,0000.0,0006.45,0003.03,0002.40
2023-06-14 16:57:00,SystemResetWarning,0827.4,5.00,000.00,029.7,028.2,000.0,038.2,031.2,25.6,0000.0,0004.95,0003.04,0002.40
2023-06-14 16:58:00,SystemResetWarning,0827.6,5.00,000.00,029.7,028.2,000.0,038.2,031.2,25.3,0000.0,0004.90,0002.98,0002.37
2023-06-14 16:59:00,SystemResetWarning,0827.7,5.00,000.00,029.7,028.2,000.0,038.2,031.3,25.1,0000.0,0004.82,0002.89,0002.36
